[[{"header":{"parameterUnit":"m.s-1","parameterCategory":1,"la1":30.2991,"la2":30.254,"lo1":-89.0895,"lo2":-89.0444,"dy":0.0017,"dx":0.0017,"nx":28,"ny":28,"refTime":"2023-10-15T03:00:00:Z","depth":0,"parameterNumber":2,"parameterNumberName":"U-component_of_WINDS"},"data":[0,0,0,0,0,0,0,0,0,0,0,0,0,0,0,0,0,0,0,0,0,0,0,0,0,0,0,0,0,0,0,0,0,0,0,0,0,0,0,0,0,0,0,0,0,0,0,0,0,0,0,0,0,0,0,0,0,0,4.1148,4.1149,0,4.1159,4.1159,4.1159,4.1106,4.1104,4.1103,4.1101,4.1112,4.1114,4.1115,0,0,0,0,0,0,0,0,0,0,0,0,0,4.1086,4.1088,4.1148,4.1149,4.1149,4.1159,4.1159,4.1159,4.1106,4.1104,4.1102,4.1101,4.1111,4.1113,4.1115,0,0,0,0,0,0,0,0,0,0,0,0,0,4.1107,4.1088,4.1148,4.1124,4.1121,4.1159,4.1159,4.1159,4.1106,4.1104,4.1102,4.11,4.1111,4.1113,4.1116,4.1177,0,0,4.1124,4.1125,0,0,0,0,0,0,0,0,4.1105,4.1109,4.1127,4.1125,4.1123,4.1129,4.1141,4.1165,4.1107,4.1112,4.1101,4.1099,4.1119,4.1121,4.1128,4.1178,4.1178,4.1124,4.1125,4.1126,4.1127,0,0,0,0,0,0,0,4.1104,4.1108,4.1152,4.1127,4.1125,4.1113,4.1113,4.1145,4.1128,4.1111,4.1108,4.111,4.1118,4.1126,4.1128,4.1178,4.1124,4.1126,4.1128,4.1129,4.1285,4.1288,0,0,0,0,0,0,4.1106,4.1107,4.1152,4.1153,4.1108,4.1116,4.1116,4.1129,4.1128,4.1126,4.1112,4.1107,4.1122,4.1125,4.1128,4.1205,4.1126,4.1129,4.113,4.1283,4.1286,4.1289,0,0,0,0,0,0,4.1105,4.111,4.1152,4.1129,4.1133,4.1119,4.1134,4.113,4.1138,4.1128,4.1125,4.1123,4.1121,4.1124,4.1167,4.1204,4.113,4.1132,4.128,4.1284,4.1287,4.1355,0,0,0,0,0,0,4.1103,4.111,4.1132,4.113,4.1135,4.119,4.1136,4.1132,4.1143,4.1137,4.1137,4.1135,4.1119,4.1163,4.1169,4.1206,4.1134,4.1276,4.1281,4.1286,4.135,4.1361,4.1371,0,0,0,0,0,4.1101,4.115,4.1134,4.114,4.1162,4.1192,4.1195,4.1175,4.1146,4.1169,4.1164,4.1135,4.1198,4.1168,4.1174,4.1213,4.1274,4.128,4.1286,4.1345,4.1359,4.1371,0,0,0,0,0,0,4.1156,4.1149,4.1131,4.118,4.1187,4.1183,4.1211,4.1189,4.1204,4.1198,4.1173,4.1174,4.1222,4.1221,4.1187,4.1275,4.1231,4.1239,4.1274,4.1287,4.1298,4.1299,4.1136,0,0,0,0,0,4.1174,4.1198,4.1191,4.1235,4.124,4.1225,4.1237,4.1222,4.1228,4.123,4.1227,4.1234,4.1257,4.1271,4.129,4.1349,4.1351,4.1379,4.1389,4.1398,4.1406,4.1442,4.1455,4.1308,4.1308,4.1308,0,0,4.1212,4.1211,4.1227,4.1246,4.125,4.1277,4.1228,4.1257,4.1278,4.1234,4.1276,4.1274,4.1281,4.1333,4.1356,4.1334,4.1447,4.1405,4.1412,4.1415,4.1449,4.1463,4.1476,4.1312,4.1312,4.1311,0,0,4.1295,4.1294,4.1334,4.1339,4.1346,4.1337,4.1346,4.1346,4.1344,4.1384,4.1354,4.1378,4.1415,4.1423,4.1432,4.1522,4.1499,4.1529,4.1585,4.1621,4.1632,4.1643,4.1679,4.1692,4.1536,4.1536,4.1536,0,4.134,4.138,4.1357,4.1391,4.1402,4.1365,4.1407,4.1412,4.1425,4.1434,4.1409,4.1458,4.1459,4.1516,4.1538,4.1545,4.1558,4.153,4.1632,4.1642,4.1652,4.1687,4.17,4.154,4.154,4.1539,4.1539,0,4.1438,4.1466,4.1497,4.1513,4.1527,4.1564,4.1549,4.1566,4.155,4.1545,4.1589,4.159,4.1611,4.1623,4.1606,4.1678,4.1665,4.1636,4.1592,4.167,4.1703,4.1716,4.1546,4.1544,4.1543,4.1542,0,0,4.1556,4.156,4.1573,4.1581,4.1587,4.1609,4.1646,4.1668,4.1685,4.1695,4.1728,4.1762,4.1737,4.1748,4.1732,4.1762,4.1841,4.1731,4.1731,4.1755,4.1925,4.195,4.1965,4.1824,4.1826,4.1828,4.1926,0,4.1641,4.1705,4.1687,4.1752,4.178,4.1747,4.1779,4.1788,4.1784,4.1808,4.1803,4.183,4.1792,4.1799,4.1828,4.1825,4.1875,4.1817,4.1857,4.1859,4.1861,4.1982,4.2007,4.2099,4.1938,4.194,4.1942,0,4.1748,4.1766,4.1834,4.1839,4.1851,4.188,4.1901,4.1924,4.1934,4.1929,4.1943,4.1922,4.1961,4.1915,4.1971,4.1932,4.1948,4.1949,4.1952,4.1958,4.1908,4.1995,4.2128,4.2144,4.1961,4.1959,4.1958,0,4.1834,4.1873,4.192,4.1928,4.1934,4.1957,4.1961,4.1969,4.1985,4.2003,4.2013,4.2035,4.2048,4.2067,4.2054,4.2021,4.2114,4.2065,4.2114,4.2115,4.2137,4.2137,4.2279,4.2141,4.214,4.214,4.214,0,4.1933,4.1977,4.196,4.1989,4.2039,4.2019,4.2069,4.2069,4.2077,4.2107,4.2078,4.2107,4.2087,4.2115,4.2105,4.2156,4.216,4.216,4.2158,4.2165,4.2166,4.2177,4.2172,4.2144,4.2143,4.2142,4.2142,0,4.2038,4.2027,4.2078,4.2081,4.2083,4.212,4.2123,4.2151,4.2146,4.2185,4.2193,4.2185,4.2218,4.2206,4.2239,4.2233,4.2299,4.2286,4.2297,4.2295,4.2346,4.2343,4.2504,4.2526,4.2369,4.237,4.2372,0,4.2104,4.2138,4.2145,4.2164,4.2171,4.22,4.2217,4.2199,4.2218,4.2235,4.2262,4.2292,4.2315,4.2369,4.2367,4.2394,4.2384,4.2438,4.2388,4.2396,4.2391,4.2391,4.2396,4.245,4.2452,4.2453,4.2454,0,4.2224,4.2218,4.2243,4.2268,4.229,4.2308,4.2323,4.2341,4.2324,4.2347,4.238,4.2399,4.2435,4.2467,4.2492,4.2497,4.2475,4.247,4.2483,4.2493,4.25,4.2502,4.2329,4.2467,4.2466,4.2465,4.2464,4.2463,4.2315,4.2345,4.2357,4.2387,4.2398,4.2414,4.2443,4.2442,4.2469,4.2498,4.2486,4.2526,4.2538,4.257,4.2579,4.2611,4.259,4.2608,4.2614,4.262,4.2629,4.2492,4.2615,4.2614,4.2614,4.2614,4.2613,0,4.2438,4.2444,4.2472,4.2497,4.2522,4.2497,4.2515,4.2538,4.2573,4.2587,4.2611,4.2652,4.2684,4.2685,4.2715,4.2741,4.2732,4.275,4.275,4.2753,4.2643,4.2631,4.2757,4.2757,4.2757,4.2757,4.2757,4.2757,4.2505,4.2557,4.2553,4.2611,4.2617,4.2657,4.2669,4.2686,4.2697,4.2744,4.2771,4.2771,4.2781,4.2812,4.2841,4.2841,4.2855,4.2878,4.2875,4.2774,4.2759,4.2746,4.2734,4.288,4.2881,4.2982,4.2983,4.2984]},{"header":{"parameterUnit":"m.s-1","parameterCategory":1,"la1":30.2991,"la2":30.254,"lo1":-89.0895,"lo2":-89.0444,"dy":0.0017,"dx":0.0017,"nx":28,"ny":28,"refTime":"2023-10-15T03:00:00:Z","depth":0,"parameterNumber":3,"parameterNumberName":"V-component_of_WINDS"},"data":[0,0,0,0,0,0,0,0,0,0,0,0,0,0,0,0,0,0,0,0,0,0,0,0,0,0,0,0,0,0,0,0,0,0,0,0,0,0,0,0,0,0,0,0,0,0,0,0,0,0,0,0,0,0,0,0,0,0,-0.7467,-0.7465,0,-0.7263,-0.726,-0.7258,-0.7278,-0.7281,-0.7284,-0.7287,-0.707,-0.7062,-0.7053,0,0,0,0,0,0,0,0,0,0,0,0,0,-0.787,-0.7863,-0.7468,-0.7465,-0.7462,-0.7263,-0.726,-0.7257,-0.7277,-0.7281,-0.7285,-0.7289,-0.7073,-0.7063,-0.7052,0,0,0,0,0,0,0,0,0,0,0,0,0,-0.7683,-0.786,-0.7468,-0.7448,-0.7445,-0.7264,-0.726,-0.7257,-0.7276,-0.7281,-0.7286,-0.729,-0.7076,-0.7064,-0.7051,-0.6874,0,0,-0.7011,-0.7005,0,0,0,0,0,0,0,0,-0.7694,-0.7668,-0.7454,-0.7449,-0.7445,-0.7301,-0.7323,-0.7128,-0.7275,-0.734,-0.7287,-0.7293,-0.7142,-0.7124,-0.7075,-0.6863,-0.6854,-0.7009,-0.7001,-0.6996,-0.6992,0,0,0,0,0,0,0,-0.7707,-0.7677,-0.7386,-0.7451,-0.7445,-0.7448,-0.7427,-0.7286,-0.7216,-0.7335,-0.7336,-0.7312,-0.7141,-0.7088,-0.707,-0.6851,-0.701,-0.6998,-0.699,-0.6985,-0.6486,-0.648,0,0,0,0,0,0,-0.7725,-0.7688,-0.7393,-0.738,-0.7584,-0.7437,-0.7413,-0.7342,-0.7218,-0.7204,-0.7308,-0.7313,-0.7108,-0.7085,-0.7062,-0.6848,-0.6996,-0.6984,-0.6976,-0.6491,-0.6484,-0.6479,0,0,0,0,0,0,-0.7734,-0.7699,-0.7401,-0.7534,-0.7497,-0.7425,-0.7345,-0.7335,-0.7282,-0.7198,-0.7185,-0.7266,-0.7111,-0.7081,-0.6921,-0.6841,-0.6978,-0.6966,-0.6497,-0.6489,-0.6481,-0.6417,0,0,0,0,0,0,-0.7745,-0.7702,-0.7635,-0.7533,-0.7489,-0.7264,-0.734,-0.7328,-0.726,-0.7266,-0.7156,-0.7142,-0.7112,-0.6941,-0.6908,-0.6825,-0.6955,-0.6504,-0.6494,-0.6484,-0.6426,-0.6408,-0.6393,0,0,0,0,0,-0.776,-0.7623,-0.7631,-0.7595,-0.7405,-0.726,-0.7235,-0.7205,-0.7254,-0.7185,-0.7132,-0.7145,-0.6855,-0.6924,-0.6888,-0.68,-0.6509,-0.6497,-0.6485,-0.6434,-0.6412,-0.6393,0,0,0,0,0,0,-0.7714,-0.7609,-0.7617,-0.7444,-0.7361,-0.7264,-0.7176,-0.7182,-0.7082,-0.7091,-0.7057,-0.7032,-0.6871,-0.6819,-0.6898,-0.6623,-0.6688,-0.6668,-0.6662,-0.664,-0.6624,-0.6639,-0.6944,0,0,0,0,0,-0.7684,-0.7578,-0.7491,-0.7346,-0.7304,-0.7247,-0.7183,-0.7168,-0.708,-0.7044,-0.6979,-0.6891,-0.678,-0.6707,-0.6601,-0.642,-0.6396,-0.6341,-0.6324,-0.6311,-0.6293,-0.6195,-0.617,-0.6439,-0.6439,-0.6439,0,0,-0.762,-0.755,-0.7484,-0.7335,-0.7269,-0.7158,-0.7217,-0.7097,-0.7014,-0.7025,-0.6871,-0.682,-0.672,-0.6549,-0.6471,-0.6501,-0.6214,-0.6295,-0.6285,-0.6275,-0.618,-0.6155,-0.6132,-0.6431,-0.6432,-0.6433,0,0,-0.7448,-0.7384,-0.7257,-0.7191,-0.7092,-0.7055,-0.7025,-0.6927,-0.6894,-0.674,-0.6747,-0.6647,-0.6457,-0.6386,-0.6324,-0.6128,-0.6137,-0.6094,-0.6005,-0.591,-0.5889,-0.587,-0.58,-0.5776,-0.6078,-0.6077,-0.6077,0,-0.738,-0.7215,-0.719,-0.707,-0.7004,-0.7013,-0.6884,-0.682,-0.6689,-0.6643,-0.668,-0.6443,-0.6376,-0.619,-0.6142,-0.6092,-0.6056,-0.6106,-0.5894,-0.5875,-0.5857,-0.579,-0.5764,-0.6073,-0.6073,-0.6074,-0.6074,0,-0.7138,-0.7023,-0.6932,-0.681,-0.6734,-0.6609,-0.6565,-0.649,-0.6483,-0.6442,-0.6285,-0.6206,-0.6084,-0.6039,-0.6028,-0.5851,-0.5873,-0.5902,-0.5968,-0.5827,-0.5764,-0.5738,-0.6066,-0.6068,-0.6069,-0.607,0,0,-0.6928,-0.6797,-0.6764,-0.6709,-0.6602,-0.6512,-0.6388,-0.6272,-0.6209,-0.6119,-0.6014,-0.5855,-0.5882,-0.5813,-0.5794,-0.5711,-0.5562,-0.575,-0.5747,-0.5718,-0.5362,-0.5341,-0.5312,-0.5568,-0.5563,-0.5559,-0.5371,0,-0.6745,-0.6528,-0.6504,-0.631,-0.6204,-0.6212,-0.6104,-0.6026,-0.5985,-0.5888,-0.5842,-0.573,-0.5774,-0.5733,-0.565,-0.5597,-0.549,-0.5611,-0.5469,-0.5464,-0.5494,-0.5279,-0.5255,-0.5082,-0.5346,-0.5342,-0.5339,0,-0.6502,-0.641,-0.6206,-0.6116,-0.607,-0.5974,-0.5867,-0.5774,-0.5685,-0.5662,-0.5586,-0.558,-0.5451,-0.5523,-0.5345,-0.5428,-0.5368,-0.5334,-0.5326,-0.5311,-0.5393,-0.5258,-0.5025,-0.5,-0.5299,-0.5303,-0.5305,0,-0.6371,-0.6194,-0.6051,-0.6004,-0.5894,-0.5827,-0.5777,-0.5694,-0.5627,-0.5532,-0.5488,-0.5379,-0.5319,-0.5234,-0.5198,-0.5254,-0.5022,-0.5091,-0.4998,-0.4999,-0.4948,-0.4952,-0.4703,-0.491,-0.4911,-0.4911,-0.4912,0,-0.6168,-0.6044,-0.5991,-0.5902,-0.5762,-0.5735,-0.5597,-0.555,-0.5477,-0.5378,-0.5378,-0.5285,-0.5244,-0.5144,-0.5115,-0.4973,-0.4945,-0.4922,-0.4916,-0.4922,-0.4925,-0.4882,-0.4893,-0.4904,-0.4906,-0.4907,-0.4908,0,-0.5997,-0.5957,-0.5801,-0.5711,-0.5686,-0.5587,-0.551,-0.5423,-0.5385,-0.5261,-0.523,-0.5169,-0.5052,-0.5009,-0.4865,-0.4846,-0.4681,-0.4685,-0.4712,-0.471,-0.4621,-0.463,-0.4335,-0.4295,-0.4529,-0.4527,-0.4525,0,-0.5871,-0.5776,-0.5677,-0.5613,-0.5563,-0.5458,-0.5391,-0.536,-0.5289,-0.5183,-0.5109,-0.4994,-0.49,-0.4713,-0.4655,-0.4546,-0.4547,-0.4451,-0.453,-0.454,-0.4546,-0.4552,-0.4542,-0.4436,-0.4433,-0.4432,-0.443,0,-0.5651,-0.5637,-0.5541,-0.5437,-0.5357,-0.5274,-0.5193,-0.5139,-0.5097,-0.5017,-0.4899,-0.4827,-0.4683,-0.4568,-0.4457,-0.4405,-0.4409,-0.4406,-0.4379,-0.4384,-0.4404,-0.4393,-0.4672,-0.4412,-0.4414,-0.4415,-0.4416,-0.4417,-0.5498,-0.5415,-0.5334,-0.5227,-0.5164,-0.5089,-0.5004,-0.4957,-0.4859,-0.4741,-0.4729,-0.4602,-0.4518,-0.4369,-0.4313,-0.4213,-0.4238,-0.4199,-0.4189,-0.4179,-0.4174,-0.4421,-0.4192,-0.4192,-0.4193,-0.4193,-0.4194,0,-0.5279,-0.5229,-0.5131,-0.5019,-0.4935,-0.4951,-0.4862,-0.479,-0.468,-0.4602,-0.4511,-0.4376,-0.4266,-0.42,-0.4089,-0.4022,-0.4022,-0.3994,-0.3998,-0.3987,-0.4156,-0.4191,-0.3996,-0.3996,-0.3996,-0.3997,-0.3997,-0.3997,-0.5156,-0.5016,-0.4992,-0.4821,-0.477,-0.4649,-0.4597,-0.4528,-0.4466,-0.4317,-0.4226,-0.4185,-0.4112,-0.3996,-0.3896,-0.3879,-0.3838,-0.3808,-0.3794,-0.3954,-0.3974,-0.3994,-0.4026,-0.38,-0.38,-0.3633,-0.3631,-0.363]}]]